Tracking 29892 objects as of 21-Nov-2024
HD Live streaming from Space Station
objects crossing your sky now

NOAA 16 DEB

Track NOAA 16 DEB now!
10-day predictions


NORAD ID: 42424
Int'l Code: 2000-055TU
Perigee: 633.3 km
Apogee: 661.6 km
Inclination: 99.0 °
Period: 97.5 minutes
Semi major axis: 7018 km
RCS: Unknown
Launch date: September 21, 2000
Source: United States (US)
Launch site: AIR FORCE WESTERN TEST RANGE (AFWTR)

Note: This is SATELLITE DEBRIS
Your satellite tracking list
Your tracking list is empty




NASA's NSSDC Master Catalog

Two Line Element Set (TLE):
1 42424U 00055TU  24323.49420339  .00058630  00000-0  83235-2 0  9999
2 42424  98.9579 156.7620 0020139 337.5444  22.4879 14.76520322447286
Source of the keplerian elements: AFSPC